#timestamp,LO_Frequency,Hit,StdDev 
1631995215.8,286046996.5,N
1631995235.6,286046996.8,N
1631995255.5,286046999.2,N
1631995275.3,286046999.0,N
1631995295.2,286046999.6,N
1631995315.9,286046998.3,N
1631995335.7,286046998.7,N
1631995355.6,286046998.5,N
1631995375.4,286046998.6,N
1631995395.2,286046996.9,N
1631995415.1,286046999.3,N
1631995416.0,286046999.3,N
1631995435.8,286046997.0,N
1631995455.7,286046999.6,N
1631995475.5,286046996.5,Y
1631995495.3,286046998.2,P
1631995515.2,286046998.3,P
1631995535.0,286047000.5,P
1631995535.9,286047000.5,N
1631995555.8,286046998.9,N
1631995575.6,286047000.3,N
1631995595.4,286046999.8,N
1631995615.3,286047002.2,N
1631995635.1,286047002.1,N
1631995655.8,286047000.2,N
1631995675.7,286047002.3,N
1631995695.5,286047002.4,N
1631995715.4,286046999.8,N
1631995735.2,286047002.1,N
1631995755.0,286047002.0,N
1631995755.9,286047002.0,N
1631995775.8,286047002.6,N
1631995795.6,286047002.3,N
1631995815.4,286047002.1,N
1631995835.3,286047002.4,N
1631995855.1,286047002.7,N
1631995875.9,286047002.1,N
1631995895.7,286047002.3,N
1631995915.5,286047002.5,N
1631995935.4,286047002.0,N
1631995955.2,286047002.5,N
1631995975.1,286047002.4,N
1631995976.0,286047002.4,N
1631995995.8,286047002.6,N
1631996015.6,286047001.8,N
1631996035.5,286047002.5,N
1631996055.3,286047002.5,N
1631996075.1,286047002.6,N
1631996095.9,286047002.2,N
1631996115.7,286047004.4,Y
1631996135.6,286046998.6,P
1631996155.4,286047000.2,N
1631996175.2,286047000.5,N
1631996195.1,286046998.2,N
1631996196.0,286046998.2,N
1631996215.8,286047001.0,N
1631996235.7,286047001.0,N
1631996255.5,286047000.4,N
1631996275.3,286046999.8,N
1631996295.2,286047001.0,N
1631996315.0,286046998.2,N
1631996315.9,286046998.2,N
1631996335.7,286047001.1,N
1631996355.6,286047001.0,N
1631996375.4,286047002.8,N
1631996395.3,286047002.7,N
1631996415.1,286047002.5,N
1631996416.0,286047002.5,N
1631996435.8,286047000.2,N
1631996455.7,286047001.3,N
1631996475.5,286047004.0,N
1631996495.3,286047001.5,N
1631996515.2,286047004.1,N
1631996535.0,286047004.1,N
1631996535.9,286047004.1,N
1631996555.8,286047003.8,N
1631996575.6,286047003.5,N
1631996595.4,286047002.2,N
1631996615.3,286047001.5,N
1631996635.1,286047000.4,N
1631996655.9,286046998.1,N
1631996675.7,286047000.6,N
1631996695.5,286047000.4,N
1631996715.4,286047002.1,N
1631996735.2,286047002.1,N
1631996755.0,286047001.7,N
1631996755.9,286047001.7,N
1631996775.8,286047004.4,N
1631996795.6,286047001.6,N
1631996815.5,286047001.9,N
1631996835.3,286047003.6,N
1631996855.1,286047001.9,N
1631996875.9,286047004.4,Y
1631996895.7,286047002.8,P
1631996915.6,286047001.0,N
1631996935.4,286047000.8,N
1631996955.2,286047000.8,N
1631996975.1,286046998.1,N
1631996976.0,286046998.1,N
1631996995.8,286046999.9,N
1631997015.7,286047000.3,N
1631997035.5,286047000.4,N
1631997055.3,286046998.1,N
1631997075.2,286047001.0,N
1631997095.0,286047000.2,N
1631997095.9,286047000.2,N
1631997115.8,286047000.1,N
1631997135.6,286047001.0,N
1631997155.4,286047000.9,N
1631997175.3,286047000.7,N
1631997195.1,286046999.7,N
1631997215.8,286046999.9,N
1631997235.7,286047002.1,N
1631997255.5,286047000.2,N
1631997275.4,286047002.4,N
1631997295.2,286046999.7,N
1631997315.0,286047002.6,N
1631997316.0,286047002.6,N
1631997335.8,286047000.3,N
1631997355.6,286047000.1,N
1631997375.5,286047000.1,N
1631997395.3,286047002.7,N
1631997415.1,286046999.8,N
1631997435.9,286047002.8,N
1631997455.7,286047002.7,N
1631997475.6,286047002.0,N
1631997495.4,286047002.2,N
1631997515.2,286047002.2,N
1631997535.1,286047001.9,N
1631997536.0,286047001.9,N
1631997555.8,286047001.9,N
1631997575.6,286047002.6,N
1631997595.5,286047001.8,N
1631997615.3,286046999.8,N
1631997635.2,286047002.5,N
1631997655.9,286047003.8,Y
1631997675.7,286047001.5,P
1631997695.6,286047002.8,P
1631997715.4,286047002.3,P
1631997735.3,286047000.0,N
1631997755.1,286047001.1,N
1631997756.0,286047001.1,N
1631997775.8,286047001.0,N
1631997795.7,286047001.0,N
1631997815.5,286046999.9,N
1631997835.3,286047000.9,N
1631997855.2,286047001.0,N
1631997875.0,286047002.5,Y
1631997875.9,286047002.5,P
1631997895.8,286046998.6,N
1631997915.6,286046998.4,N
1631997935.4,286046998.8,N
1631997955.3,286046998.7,N
1631997975.1,286046998.9,N
1631997995.9,286046999.4,N
1631998015.7,286046999.1,N
1631998035.5,286046996.9,N
1631998055.4,286046997.4,N
1631998075.2,286046997.0,N
1631998095.0,286046999.1,N
1631998096.0,286046999.1,N
1631998115.8,286046999.1,N
1631998135.6,286046998.8,N
1631998155.5,286046998.3,N
1631998175.3,286046999.2,N
1631998195.1,286046998.6,N
1631998215.9,286046998.2,N
1631998235.7,286046998.7,N
1631998255.6,286046999.5,N
1631998275.4,286046998.9,N
1631998295.2,286046999.0,N
1631998315.1,286046999.5,N
1631998316.0,286046999.5,N
1631998335.8,286046996.6,Y
1631998355.7,286046998.3,P
1631998375.5,286047001.0,P
1631998395.3,286047000.8,N
1631998415.2,286047000.6,N
1631998435.9,286047000.1,N
1631998455.7,286046999.7,N
1631998475.6,286047002.3,N
1631998495.4,286046999.7,N
1631998515.3,286047000.3,N
1631998535.1,286047000.0,N
1631998536.0,286047000.0,N
1631998555.8,286047000.5,N
1631998575.7,286047000.5,N
1631998595.5,286047002.3,N
1631998615.3,286047001.6,N
1631998635.2,286047004.3,Y
1631998655.0,286047002.8,P
1631998655.9,286047002.8,N
1631998675.8,286047001.8,N
1631998695.6,286047001.8,N
1631998745.5,286047004.4,E
1631998755.4,286047000.0,N
1631998775.2,286046999.1,P
1631998795.1,286046999.5,N
1631998796.0,286046999.5,N
